Home   Weather   Beirut   Past weeks

Flag for Lebanon Past Weather in Beirut, Lebanon — Yesterday and Last 2 Weeks

Now
61 °F

Clear.


Feels Like: 61 °F
Forecast: 61 / 65 °F
Wind: 2 mph from East

Location: Beirut Airport

Current Time: Dec 5, 2016 at 2:39:58 am

Latest Report: Dec 5, 2016 at 2:00 am


Visibility: 10 mi

Pressure: 30.21 "Hg

Humidity: 55%

Dew Point: 45 °F

Location of BeirutLocation

Past Weather in Beirut — Graph

°F

Beirut Temperature Yesterday

Maximum temperature yesterday: 70 °F (at 12:00 pm)
Minimum temperature yesterday: 59 °F (at 12:00 am)
Average temperature yesterday: 64 °F

High & Low Weather Summary for the Past Weeks

 TemperatureHumidityPressure
High77 °F (Nov 23, 12:00 pm)88% (Nov 30, 1:00 pm)30.33 "Hg (Nov 30, 1:00 pm)
Low55 °F (Dec 1, 12:00 pm)5% (Nov 24, 5:00 am)29.68 "Hg (Dec 1, 10:00 pm)
Average66 °F44%30.07 "Hg
* Reported Nov 20 1:00 am — Dec 5 1:00 am, Beirut, Weather by CustomWeather, © 2016

Note: Actual official high and low records may vary slightly from our data, if they occured in-between our weather recording intervals... More about our weather records

Advertising

Beirut Weather History for the Previous 24 Hours

Scroll right to see more
 ConditionsComfort  
Time TempWeatherWind HumidityBarometerVisibility
1:00 am
Mon, Dec 5
63 °FClear.3 mph49%30.21 "Hg10 mi
12:00 am63 °FMild.3 mph52%30.21 "HgN/A
11:00 pm
Sun, Dec 4
63 °FClear.6 mph52%30.24 "Hg10 mi
10:00 pm63 °FClear.5 mph52%30.24 "Hg10 mi
9:00 pm63 °FClear.5 mph56%30.24 "Hg10 mi
8:00 pm66 °FPassing clouds.6 mph52%30.27 "HgN/A
7:00 pm64 °FClear.6 mph52%30.24 "Hg10 mi
6:00 pm64 °FClear.5 mph56%30.27 "Hg10 mi
5:00 pm68 °FPassing clouds.5 mph49%30.24 "HgN/A
4:00 pm68 °FSunny.6 mph49%30.24 "Hg10 mi
3:00 pm68 °FSunny.7 mph53%30.24 "Hg10 mi
2:00 pm68 °FSunny.7 mph49%30.24 "Hg10 mi
1:00 pm68 °FPassing clouds.7 mph49%30.24 "HgN/A
12:00 pm70 °FPassing clouds.6 mph46%30.24 "HgN/A
11:00 am68 °FSunny.6 mph46%30.27 "Hg10 mi
10:00 am66 °FScattered clouds.3 mph49%30.30 "HgN/A
9:00 am66 °FScattered clouds.2 mph49%30.30 "HgN/A
8:00 am63 °FScattered clouds.6 mph52%30.30 "HgN/A
7:00 am59 °FScattered clouds.7 mph59%30.30 "HgN/A
6:00 am59 °FPassing clouds.5 mph59%30.30 "HgN/A
5:00 am59 °FPassing clouds.6 mph55%30.30 "HgN/A
4:00 am59 °FPassing clouds.5 mph55%30.30 "HgN/A
3:00 am59 °FPassing clouds.5 mph55%30.30 "HgN/A
2:00 am59 °FPassing clouds.6 mph63%30.30 "HgN/A
Weather by CustomWeather, © 2016

See weather overviewHow to use our weather pages